Location: Arpenty
(48.5852°N, 2.1639°E)
Time: 18:47:52
(UTC+00:00)

Daily predictions for brighter satellites

Satellite Brightness Start Highest point End
(mag) Time Altitude Azimuth Time Altitude Azimuth Time Altitude Azimuth
Cosmos 2016 Rocket 4.0 18:37:43 10° S 18:43:46 69° E 18:49:50 10° NNE
Resurs 1-3 3.6 18:40:59 10° SSE 18:45:17 70° ENE 18:49:37 10° N
Cosmos 1864 Rocket 4.5 18:40:39 10° S 18:46:53 79° E 18:53:05 10° NNE
CARTOSAT-1 4.4 18:43:22 10° SE 18:47:06 31° ENE 18:50:51 10° N
DMSP B5D1-3 4.5 18:43:25 10° NNE 18:48:30 68° ESE 18:53:32 10° S
SPOT 1/Viking Rocket 3.6 18:43:43 10° SSE 18:48:52 70° ENE 18:54:02 10° N
ATLAS 2AS CENTAUR R/B 3.6 18:44:56 10° WSW 18:52:05 56° NW 18:58:59 10° NE
ATLAS CENTAUR R/B 3.3 18:50:26 10° WNW 18:55:06 60° SW 19:02:28 10° SE
Cosmos 1898 Rocket 3.8 18:50:13 10° NNW 18:55:34 77° WSW 19:00:50 10° SSE
Cosmos 1151 Rocket 2.9 18:52:58 10° N 18:57:16 74° E 19:01:30 10° SSE
ARGOS Delta rocket 4.1 18:52:25 10° SSE 18:57:28 56° ENE 19:02:17 10° N
Cosmos 2360 Rocket 2.3 18:51:51 10° SSW 18:57:31 88° WNW 19:03:12 10° NNE
Okean O Rocket 2.8 18:55:11 10° ESE 18:58:49 26° ENE 19:02:29 10° N
Cosmos 1340 2.6 18:57:02 10° S 19:00:09 44° E 19:03:18 10° NNE
USA 186 2.4 18:59:15 10° SE 19:02:13 38° ENE 19:05:16 10° N
Meteor PRIRODA 3.3 18:59:14 10° SSE 19:02:32 90° S 19:05:53 10° NNW
Resurs 01 Rocket 2.0 18:59:00 10° SE 19:03:13 45° ENE 19:07:27 10° N
Cosmos 2322 Rocket 2.8 19:00:47 10° SW 19:06:26 63° WNW 19:12:09 10° NNE
Cosmos 2237 Rocket 3.9 19:04:51 10° ESE 19:06:48 12° E 19:08:46 10° ENE
Helios 1A 2.8 19:05:20 10° NNE 19:09:24 69° ESE 19:13:26 10° S
ACS3 Solar Sail 2.5 19:05:59 10° SE 19:11:46 38° ENE 19:17:36 10° N
BlueWalker 3 2.3 19:08:41 10° WNW 19:12:23 55° NNE 19:15:32 14° E
NOSS 2-1 (E) 4.1 19:09:25 10° NNW 19:12:50 38° NE 19:16:32 14° ESE
Cosmos 44 Rocket 3.2 19:08:22 10° NW 19:13:09 73° NE 19:17:37 11° SE
Cosmos 2333 Rocket 2.6 19:08:40 10° SW 19:14:26 72° WNW 19:20:13 10° NNE
Okean-O 4.0 19:12:12 13° ESE 19:15:02 22° ENE 19:18:27 10° NNE
SL-08 R/B 3.5 19:11:53 10° NNE 19:16:50 82° WNW 19:21:45 10° SSW
Feng Yun 1-1 Rocket 4.5 19:11:16 10° SSE 19:16:53 60° ENE 19:22:39 10° N
ATLAS 3B R/B 3.9 19:10:18 10° NW 19:17:46 49° WSW 19:25:04 10° S
Cosmos 2219 Rocket 2.2 19:12:44 10° SSW 19:18:23 75° ESE 19:24:05 10° NNE
Meteor 1-5 Rocket 4.4 19:16:10 10° SSW 19:21:46 84° WNW 19:27:38 10° N
Cosmos 1626 3.6 19:19:07 10° NNW 19:21:51 31° W 19:24:32 10° SSW
NOSS 2-1 (D) 3.8 19:19:22 10° NNW 19:22:53 47° NE 19:26:15 17° ESE
CSL-04 Rocket 3.7 19:18:08 10° SSE 19:23:28 62° ENE 19:28:43 10° N
BREEZE-M DEB (TANK) 1.8 19:21:39 10° WSW 19:23:42 52° SSE 19:25:16 18° E
Cosmos 1842 3.7 19:22:10 10° N 19:25:33 36° ENE 19:27:54 17° SE
SL-16 R/B 4.1 19:21:43 10° WSW 19:26:48 33° NW 19:31:55 10° NNE
USA 229 DEB 4.2 19:19:52 10° NW 19:27:17 73° SW 19:35:21 10° SSE
USA 229 4.2 19:20:02 10° NW 19:27:27 73° SW 19:35:28 10° SSE
CZ-4B R/B 4.4 19:24:57 10° S 19:29:31 47° W 19:34:08 10° NNW
SJ-6B 3.9 19:26:16 10° S 19:29:45 42° W 19:33:14 10° NNW
Cosmos 1766 Rocket 3.6 19:27:48 10° S 19:32:01 55° E 19:36:18 10° NNE
USA 267 4.0 19:29:00 10° E 19:35:11 47° N 19:41:24 10° WNW
Cosmos 2369 Rocket 4.4 19:33:37 10° N 19:35:52 12° NNE 19:38:06 10° NE
BREEZE-M R/B 3.8 19:32:36 10° W 19:36:47 88° N 19:49:01 13° E
Meteor 2-17 Rocket 4.5 19:32:48 10° N 19:38:49 60° ENE 19:44:31 11° SSE
Cosmos 2322 3.7 19:33:40 10° SSW 19:39:13 62° ESE 19:44:48 10° NNE
USA 276 2.0 19:37:31 10° W 19:40:20 60° N 19:41:31 28° ENE
Cosmos 1066 Rocket 4.4 19:35:29 10° NNW 19:41:23 84° W 19:47:14 10° S
Cosmos 1400 Rocket 2.8 19:38:42 10° NNW 19:42:34 79° W 19:46:22 10° S
PSLV R/B 3.9 19:44:58 27° SE 19:46:31 46° ENE 19:49:58 10° N
Cosmos 1707 2.6 19:43:39 10° N 19:47:09 53° ENE 19:48:45 28° SE
Cosmos 1315 Rocket 4.0 19:44:21 10° NNE 19:47:38 24° ENE 19:48:16 23° E
CZ-4 R/B 2.6 19:44:42 10° SSW 19:48:16 39° W 19:51:55 10° NNW
Cosmos 1733 3.8 19:49:19 29° E 19:49:19 29° E 19:52:13 10° NNE
Cosmos 1891 Rocket 4.4 19:43:12 10° S 19:49:11 68° E 19:55:19 10° NNE
Cosmos 1726 2.7 19:46:36 10° SSW 19:49:18 42° WNW 19:52:02 10° N
Cosmos 1408 Rocket 4.4 19:50:27 27° ESE 19:51:10 28° E 19:54:55 10° NNE
Cosmos 1536 2.9 19:55:08 29° SSE 19:56:37 45° E 20:00:17 10° NNE
KORONAS-FOTON 3.6 19:53:44 10° N 19:57:27 86° W 19:59:46 22° S
Lacrosse 4 Rocket 1.9 19:53:20 10° NW 19:57:37 58° WSW 20:00:25 20° SSE
COSMOS 2428 2.6 19:52:37 10° SSW 19:58:16 71° ESE 20:04:00 10° NNE
Cosmos 1818 3.6 19:53:01 10° SW 19:58:30 89° WNW 20:04:02 10° NE
CSL-04 Debris 4.5 19:53:04 10° S 19:58:31 68° WSW 20:04:00 10° NNW
Nadezhda 4 Rocket 4.1 19:55:26 10° N 20:01:36 59° ENE 20:05:35 23° SSE
Cosmos 1356 Rocket 3.3 19:57:33 10° N 20:01:45 75° ENE 20:03:50 29° SSE
Meteor 1-4 Rocket 1.9 19:59:05 10° NNW 20:01:46 69° W 20:02:21 48° SSW
Cosmos 1943 Rocket 2.5 19:58:48 10° NNW 20:04:08 48° NE 20:06:28 30° ESE
Cosmos 1674 3.6 20:02:26 10° NNW 20:05:38 41° W 20:08:24 13° SSW
Meteor 1-14 Rocket 4.1 20:00:38 10° S 20:06:12 87° E 20:11:45 10° NNE
Cosmos 1328 Rocket 4.2 20:02:38 10° NNW 20:06:50 53° W 20:11:00 10° S
Cosmos 1513 Rocket 4.3 20:02:03 10° S 20:08:05 85° E 20:14:13 10° N
USA 59 Rocket 0.0 20:06:00 10° NW 20:09:49 80° SW 20:11:54 33° SSE
Terra 2.5 20:09:10 31° E 20:10:12 35° ENE 20:14:29 10° N
Cosmos 1464 Rocket 3.9 20:05:23 10° S 20:11:38 71° E 20:17:59 10° NNE
Meteor 1-11 Rocket 3.8 20:09:42 19° SSE 20:13:39 55° E 20:19:05 10° NNE
Ariane Rocket 3.9 20:14:45 29° E 20:15:44 31° ENE 20:20:09 10° N
Cosmos 1125 Rocket 3.6 20:11:53 10° NNW 20:17:02 59° ENE 20:18:45 39° ESE
SPOT 3 Rocket 4.4 20:17:15 29° E 20:18:14 31° ENE 20:22:45 10° N
USA 290 2.1 20:16:18 10° NNW 20:19:34 83° WSW 20:19:43 79° SSW
Cosmos 2278 Rocket 2.1 20:14:42 10° NNW 20:20:25 87° ENE 20:22:57 35° SSE
ERS-1 Rocket 3.2 20:19:35 39° ESE 20:21:01 53° ENE 20:25:54 10° N
CZ-4B R/B 4.3 20:16:41 10° S 20:21:53 42° W 20:27:01 10° NNW
BREEZE-M DEB (TANK) 4.0 20:19:16 10° W 20:22:26 79° N 20:26:06 27° E
Meteor 2-9 Rocket 4.1 20:20:43 34° SSE 20:22:49 54° E 20:28:04 10° NNE
USA 306 3.9 20:21:52 10° SW 20:23:20 24° SSW 20:23:20 24° SSW
SPOT 5 2.7 20:24:19 37° SSE 20:26:15 90° ENE 20:30:50 10° NNW
NOSS 2-1 (C) 3.9 20:22:34 10° NW 20:26:20 57° SW 20:27:51 38° S
IRS-1A Rocket 4.3 20:25:49 36° SE 20:28:14 70° ENE 20:33:57 10° N
Cosmos 2034 Rocket 3.9 20:26:34 24° S 20:30:25 67° E 20:36:33 10° NNE
Okean 3 Rocket 3.8 20:28:15 12° SSW 20:32:21 69° W 20:36:50 10° N
Okean O Rocket 2.8 20:31:49 17° SSW 20:34:53 40° W 20:39:05 10° NNW
Cosmos 2208 Rocket 4.5 20:35:49 40° E 20:35:49 40° E 20:40:09 10° NE
NOSS 0 Rocket 3.8 20:32:34 10° SSW 20:38:49 84° ESE 20:45:07 10° NNE
Resurs 01 Rocket 3.9 20:36:26 10° SW 20:39:51 22° W 20:43:18 10° NW
USA 215 3.4 20:35:51 10° ENE 20:42:10 48° SE 20:48:27 10° SSW
Meteor 1-21 4.4 20:41:17 10° N 20:46:55 54° ENE 20:47:41 50° ESE
Cosmos 2228 Rocket 4.2 20:43:02 10° N 20:46:31 33° NE 20:46:31 33° NE
MOS 1 Rocket 3.5 20:45:59 48° S 20:47:22 79° WSW 20:52:36 10° NNW
Cosmos 2237 Rocket 2.0 20:46:17 23° SSW 20:49:49 73° ESE 20:55:27 10° NNE
BlueWalker 3 2.9 20:46:50 10° WNW 20:49:46 38° WSW 20:49:46 38° WSW
Okean-O 3.4 20:49:39 33° SSW 20:51:08 46° W 20:55:24 10° NNW
Cosmos 1805 4.5 20:55:19 31° NNE 20:55:19 31° NNE 20:57:22 10° NNE
Aureole 3 Rocket 4.0 20:47:44 17° S 20:53:44 86° E 20:59:18 10° N
ACS3 Solar Sail 2.8 20:50:27 14° SSW 20:55:44 45° W 21:01:52 10° NNW
Sich 1 3.0 20:57:04 72° N 20:57:04 72° N 21:00:58 10° N
Cosmos 2219 Rocket 4.4 20:58:20 10° W 21:02:57 25° NW 21:07:34 10° N
Cosmos 2279 Rocket 4.3 21:06:50 45° E 21:06:50 45° E 21:12:22 10° NNE
BREEZE-M DEB (TANK) 3.6 20:52:15 10° W 21:09:19 85° N 21:10:46 53° E
Cosmos 1500 Rocket 3.9 21:11:22 59° W 21:11:33 59° WNW 21:15:53 10° N
Cosmos 1743 Rocket 4.0 21:16:40 57° NNW 21:16:40 57° NNW 21:20:15 10° N
USA 267 3.2 21:16:21 57° ESE 21:17:49 82° NNE 21:24:24 10° NW
Cosmos 1980 3.9 21:12:56 10° SW 21:18:35 68° WNW 21:24:17 10° NNE
Cosmos 2369 Rocket 2.9 21:16:10 10° NNW 21:21:34 41° NE 21:21:39 41° NE
Spot 2 Rocket 3.6 21:21:59 66° WSW 21:22:06 66° WSW 21:27:07 10° NNW
Cosmos 2298 Rocket 4.0 21:16:58 10° NNW 21:22:14 79° W 21:22:14 79° W
Cosmos 1315 Rocket 4.3 21:20:12 10° NNW 21:23:29 31° W 21:23:29 31° W
Cosmos 2150 Rocket 4.1 21:22:13 10° NNW 21:27:07 70° W 21:27:07 70° W
SL-16 R/B 3.4 21:49:08 32° NE 21:49:08 32° NE 21:52:11 10° NNE
NOSS 3-4 (A) 3.9 21:40:29 10° NW 21:47:08 65° NE 21:47:59 60° ENE
NOSS 3-4 (C) 3.9 21:40:35 10° NW 21:47:14 64° NE 21:48:05 60° ENE
Cosmos 1943 Rocket 3.4 21:42:53 10° NW 21:47:39 31° WSW 21:47:58 31° WSW
Terra 3.2 21:47:52 31° W 21:47:52 31° W 21:52:00 10° NNW
Ariane Rocket 4.0 21:54:54 40° W 21:54:54 40° W 21:59:19 10° NNW
Cosmos 2266 Rocket 4.2 21:49:58 10° N 21:55:29 62° NE 21:55:29 62° NE
SPOT 3 Rocket 4.5 21:57:52 41° W 21:57:52 41° W 22:02:22 10° NNW
USA 59 Rocket 2.8 21:57:24 10° W 21:58:17 11° WSW 21:58:17 11° WSW
Cosmos 2278 Rocket 4.3 22:00:17 10° WNW 22:03:42 17° W 22:04:48 16° WSW
Cosmos 1655 Rocket 4.4 22:10:39 10° N 22:15:58 57° NE 22:15:58 57° NE
USA 215 3.4 22:18:52 10° NE 22:25:23 69° NNW 22:31:53 10° WSW
Cosmos 2237 Rocket 4.2 22:29:54 10° W 22:34:28 25° NW 22:39:04 10° N
Cosmos 2369 Rocket 3.8 23:00:18 10° NW 23:03:25 29° WNW 23:03:25 29° WNW
SL-16 R/B 3.8 23:30:58 28° NW 23:31:07 28° NW 23:35:58 10° NNE
